Regional Weather Roundup
Issued by NWS

Home | Current Version | Previous Version | Graphics & Text | Print | Product List | Glossary On
Versions: 1 2 3 4 5 6 7 8 9 10 11 12 13 14 15 16 17 18 19 20 21 22 23 24 25 26 27 28 29 30 31 32 33 34 35 36 37 38 39 40 41 42 43 44 45 46 47 48 49 50
585
ASUS43 KIND 281859
RWRIN

WEATHER ROUNDUP FOR INDIANA
NATIONAL WEATHER SERVICE INDIANAPOLIS IN
300 PM EDT THU APR 28 2016

NOTE: "FAIR" INDICATES FEW OR NO CLOUDS BELOW 12,000 FEET WITH NO
SIGNIFICANT WEATHER AND/OR OBSTRUCTIONS TO VISIBILITY.

* - STATION DOES NOT REPORT WEATHER SUCH AS PRECIPITATION OR FOG.

+ - STATION NOT QUALITY CONTROLLED BY THE NATIONAL WEATHER SERVICE.
    USE DATA WITH CAUTION...ESPECIALLY DEWPOINT AND RELATIVE
    HUMIDITY OBSERVATIONS.

INZ001>003-010>013-019-020-282000-
NORTHWEST INDIANA

CITY           SKY/WX    TMP DP  RH WIND       PRES   REMARKS
GARY /AIRPORT/ CLOUDY    48  48 100 N7        29.90R
RENSSELAER +   CLOUDY    55  52  88 NE6       29.87R

$$

LMZ046-743>745-282000-
SOUTHERN LAKE MICHIGAN

STATION/POSITION TIME  TEMP    WIND        PRES    WAVE
                       AIR SEA DIR/SP/G            HT
                 (UTC) (F)     (DEG/KT/KT) (MB)    (FT)
BURNS HARBOR     1809   51      60/  9/ 11 1012.2F
MICHIGAN CITY    1800   50     110/  3/  5   N/A

$$

INZ004-005-014>016-021>024-282000-
NORTH CENTRAL INDIANA

CITY           SKY/WX    TMP DP  RH WIND       PRES   REMARKS
ELKHART        CLOUDY    50  48  93 E10       29.91R
GOSHEN         CLOUDY    52  45  77 E12       29.90R
SOUTH BEND     CLOUDY    51  44  77 E9        29.91R

$$

INZ006>009-017-018-025>027-282000-
NORTHEAST INDIANA

CITY           SKY/WX    TMP DP  RH WIND       PRES   REMARKS
ANGOLA *+      CLOUDY    48  37  66 E13       29.92R
FORT WAYNE     CLOUDY    50  45  83 E14       29.91R

$$

INZ028-029-035-036-043>045-051>053-282000-
WEST CENTRAL INDIANA

CITY           SKY/WX    TMP DP  RH WIND       PRES   REMARKS
CRAWFORDSVL +  CLOUDY    63  63 100 N10       29.83R
GREENCASTLE +  MOSUNNY   70  57  64 SW9       29.82R
LAFAYETTE      PTSUNNY   60  54  80 NE6       29.85R
TERRE HAUTE    SUNNY     71  54  54 W13       29.83R

$$

INZ030>032-037>040-046>048-054>057-064-065-282000-
CENTRAL INDIANA

CITY           SKY/WX    TMP DP  RH WIND       PRES   REMARKS
ANDERSON       CLOUDY    66  59  77 N6        29.83F
COLUMBUS       MOSUNNY   73  63  68 SW17      29.81F
INDIANAPOLIS   PTSUNNY   72  56  57 W15       29.79S
-EAGLE CREEK   PTSUNNY   73  60  63 VRB7      29.79F
KOKOMO *+      CLOUDY    55  50  82 E14       29.86F
SHELBYVILLE    LGT RAIN  72  59  63 W9        29.79F

$$

INZ033-034-041-042-049-050-058-059-282000-
EAST CENTRAL INDIANA

CITY           SKY/WX    TMP DP  RH WIND       PRES   REMARKS
MUNCIE         CLOUDY    64  56  75 NE9       29.84S

$$

INZ060-061-067>069-081>083-085>088-282000-
SOUTHWEST INDIANA

CITY           SKY/WX    TMP DP  RH WIND       PRES   REMARKS
EVANSVILLE     SUNNY     75  51  43 W10       29.87R
HUNTINGBURG *+ SUNNY     73  54  49 W15       29.86R

$$

INZ062-063-066-070>080-084-089>092-282000-
SOUTH CENTRAL AND SOUTHEAST INDIANA

CITY           SKY/WX    TMP DP  RH WIND       PRES   REMARKS
BLOOMINGTON    MOSUNNY   73  52  47 W15G24    29.83R
MADISON *+     MOSUNNY   73  55  53 SW9       29.84F
SEYMOUR +      MOSUNNY   77  59  53 SW13      29.82S

$$





USA.gov is the U.S. government's official web portal to all federal, state and local government web resources and services.